| time (UTC) | temp F | wind direction | speed MPH | gust MPH | rain 1hr in | rain 24hr in | rain mn in | humidity % | barometer mb |
| 20260906181003 | 85 | 16 | 6.0 | 15.0 | 0.00 | 0.00 | 0.00 | 60 | 1012.7 |
| 20260906180524 | 85 | 34 | 6.0 | 14.0 | 0.00 | 0.00 | 0.00 | 60 | 1012.8 |
| 20260906180024 | 85 | 357 | 6.0 | 14.0 | 0.00 | 0.00 | 0.00 | 64 | 1012.8 |
| 20260906175503 | 85 | 24 | 7.0 | 15.0 | 0.00 | 0.00 | 0.00 | 62 | 1012.9 |
| 20260906175004 | 84 | 35 | 6.0 | 18.0 | 0.00 | 0.00 | 0.00 | 63 | 1012.8 |
| 20260906174503 | 84 | 10 | 10.0 | 18.0 | 0.00 | 0.00 | 0.00 | 63 | 1013.0 |
| 20260906174004 | 84 | 12 | 8.0 | 17.0 | 0.00 | 0.00 | 0.00 | 64 | 1013.0 |
| 20260906173503 | 84 | 20 | 9.0 | 18.0 | 0.00 | 0.00 | 0.00 | 65 | 1013.0 |
| 20260906173003 | 84 | 29 | 10.0 | 18.0 | 0.00 | 0.00 | 0.00 | 64 | 1013.0 |
| 20260906172503 | 84 | 33 | 8.0 | 17.0 | 0.00 | 0.00 | 0.00 | 67 | 1013.0 |
| 20260906172003 | 84 | 24 | 10.0 | 17.0 | 0.00 | 0.00 | 0.00 | 65 | 1013.0 |
| 20260906171504 | 84 | 13 | 8.0 | 17.0 | 0.00 | 0.00 | 0.00 | 68 | 1013.0 |
| 20260906171025 | 84 | 25 | 8.0 | 13.0 | 0.00 | 0.00 | 0.00 | 67 | 1013.0 |
| 20260906170503 | 84 | 21 | 8.0 | 17.0 | 0.00 | 0.00 | 0.00 | 68 | 1013.1 |
| 20260906170003 | 83 | 3 | 9.0 | 17.0 | 0.00 | 0.00 | 0.00 | 70 | 1013.2 |
| 20260906165503 | 83 | 30 | 7.0 | 13.0 | 0.00 | 0.00 | 0.00 | 71 | 1013.2 |
| 20260906165003 | 83 | 28 | 6.0 | 13.0 | 0.00 | 0.00 | 0.00 | 70 | 1013.3 |
| 20260906164504 | 82 | 20 | 8.0 | 14.0 | 0.00 | 0.00 | 0.00 | 74 | 1013.3 |
| 20260906164002 | 82 | 35 | 9.0 | 14.0 | 0.00 | 0.00 | 0.00 | 71 | 1013.4 |
| 20260906163504 | 82 | 31 | 6.0 | 12.0 | 0.00 | 0.00 | 0.00 | 72 | 1013.5 |
| 20260906163003 | 81 | 28 | 4.0 | 13.0 | 0.00 | 0.00 | 0.00 | 76 | 1013.5 |
| 20260906162503 | 80 | 26 | 8.0 | 17.0 | 0.00 | 0.00 | 0.00 | 75 | 1013.7 |
| 20260906162003 | 80 | 24 | 12.0 | 17.0 | 0.00 | 0.00 | 0.00 | 75 | 1013.9 |
| 20260906161503 | 80 | 15 | 7.0 | 17.0 | 0.00 | 0.00 | 0.00 | 76 | 1013.7 |
| 20260906161003 | 80 | 28 | 12.0 | 17.0 | 0.00 | 0.00 | 0.00 | 76 | 1013.8 |
| 20260906160504 | 80 | 17 | 7.0 | 17.0 | 0.00 | 0.00 | 0.00 | 77 | 1013.7 |
| 20260906160004 | 79 | 30 | 9.0 | 17.0 | 0.00 | 0.00 | 0.00 | 78 | 1013.7 |
| 20260906155504 | 78 | 22 | 9.0 | 17.0 | 0.00 | 0.00 | 0.00 | 78 | 1013.8 |
| 20260906155004 | 78 | 20 | 9.0 | 16.0 | 0.00 | 0.00 | 0.00 | 79 | 1014.0 |
| 20260906154504 | 78 | 4 | 4.0 | 10.0 | 0.00 | 0.00 | 0.00 | 81 | 1014.1 |
| 20260906154003 | 78 | 18 | 5.0 | 20.0 | 0.00 | 0.00 | 0.00 | 78 | 1014.2 |
| 20260906153503 | 78 | 13 | 10.0 | 20.0 | 0.00 | 0.00 | 0.00 | 78 | 1014.1 |
| 20260906153024 | 78 | 19 | 10.0 | 18.0 | 0.00 | 0.00 | 0.00 | 79 | 1014.2 |
| 20260906152504 | 79 | 9 | 6.0 | 17.0 | 0.00 | 0.00 | 0.00 | 76 | 1014.6 |
| 20260906152003 | 80 | 11 | 6.0 | 17.0 | 0.00 | 0.00 | 0.00 | 75 | 1014.6 |
| 20260906151503 | 81 | 6 | 5.0 | 12.0 | 0.00 | 0.00 | 0.00 | 72 | 1014.0 |
| 20260906151003 | 81 | 25 | 5.0 | 10.0 | 0.00 | 0.00 | 0.00 | 74 | 1013.7 |
| 20260906150504 | 81 | 42 | 5.0 | 10.0 | 0.00 | 0.00 | 0.00 | 74 | 1013.7 |
| 20260906150025 | 81 | 23 | 2.0 | 9.0 | 0.00 | 0.00 | 0.00 | 74 | 1013.8 |
| 20260906145503 | 81 | 39 | 3.0 | 7.0 | 0.00 | 0.00 | 0.00 | 74 | 1013.7 |
| 20260906145003 | 80 | 37 | 2.0 | 10.0 | 0.00 | 0.00 | 0.00 | 75 | 1013.7 |
| 20260906144503 | 81 | 28 | 7.0 | 10.0 | 0.00 | 0.00 | 0.00 | 72 | 1013.7 |
| 20260906144003 | 81 | 5 | 3.0 | 8.0 | 0.00 | 0.00 | 0.00 | 72 | 1013.6 |
| 20260906143504 | 81 | 31 | 3.0 | 8.0 | 0.00 | 0.00 | 0.00 | 72 | 1013.6 |
| 20260906143003 | 81 | 354 | 3.0 | 7.0 | 0.00 | 0.00 | 0.00 | 74 | 1013.6 |
| 20260906142503 | 81 | 36 | 4.0 | 10.0 | 0.00 | 0.00 | 0.00 | 72 | 1013.6 |
| 20260906142003 | 80 | 10 | 3.0 | 10.0 | 0.00 | 0.00 | 0.00 | 75 | 1013.7 |
| 20260906141503 | 80 | 34 | 2.0 | 9.0 | 0.00 | 0.00 | 0.00 | 76 | 1013.8 |
| 20260906141004 | 80 | 14 | 5.0 | 9.0 | 0.00 | 0.00 | 0.00 | 76 | 1013.8 |
| 20260906140503 | 80 | 16 | 3.0 | 11.0 | 0.00 | 0.00 | 0.00 | 76 | 1013.7 |
| 20260906140004 | 80 | 357 | 4.0 | 13.0 | 0.00 | 0.00 | 0.00 | 77 | 1013.5 |
| 20260906135504 | 79 | 36 | 5.0 | 13.0 | 0.00 | 0.00 | 0.00 | 76 | 1013.6 |
| 20260906135003 | 79 | 29 | 8.0 | 13.0 | 0.00 | 0.00 | 0.00 | 76 | 1013.5 |
| 20260906134504 | 79 | 18 | 6.0 | 10.0 | 0.00 | 0.00 | 0.00 | 77 | 1013.5 |
| 20260906134003 | 79 | 15 | 7.0 | 10.0 | 0.00 | 0.00 | 0.00 | 78 | 1013.5 |
| 20260906133504 | 79 | 26 | 6.0 | 10.0 | 0.00 | 0.00 | 0.00 | 77 | 1013.5 |
| 20260906133002 | 78 | 36 | 4.0 | 9.0 | 0.00 | 0.00 | 0.00 | 78 | 1013.4 |
| 20260906132524 | 78 | 28 | 4.0 | 10.0 | 0.00 | 0.00 | 0.00 | 79 | 1013.4 |
| 20260906132002 | 77 | 29 | 5.0 | 10.0 | 0.00 | 0.00 | 0.00 | 81 | 1013.4 |
| 20260906131504 | 77 | 25 | 5.0 | 10.0 | 0.00 | 0.00 | 0.00 | 81 | 1013.4 |
| 20260906131003 | 76 | 30 | 6.0 | 10.0 | 0.00 | 0.00 | 0.00 | 81 | 1013.3 |
| 20260906130503 | 76 | 24 | 5.0 | 11.0 | 0.00 | 0.00 | 0.00 | 81 | 1013.3 |
| 20260906130025 | 76 | 33 | 5.0 | 11.0 | 0.00 | 0.00 | 0.00 | 82 | 1013.4 |
| 20260906125504 | 76 | 34 | 3.0 | 10.0 | 0.00 | 0.00 | 0.00 | 83 | 1013.3 |
| 20260906125004 | 75 | 16 | 6.0 | 12.0 | 0.00 | 0.00 | 0.00 | 84 | 1013.1 |
| 20260906124504 | 75 | 36 | 7.0 | 12.0 | 0.00 | 0.00 | 0.00 | 84 | 1013.2 |
| 20260906124024 | 74 | 17 | 8.0 | 12.0 | 0.00 | 0.00 | 0.00 | 86 | 1013.0 |
| 20260906123503 | 74 | 21 | 6.0 | 7.0 | 0.00 | 0.00 | 0.00 | 86 | 1013.1 |
| 20260906123025 | 74 | 29 | 6.0 | 7.0 | 0.00 | 0.00 | 0.00 | 87 | 1013.0 |
| 20260906122503 | 73 | 23 | 3.0 | 7.0 | 0.00 | 0.00 | 0.00 | 87 | 1012.8 |
| 20260906122003 | 73 | 24 | 3.0 | 7.0 | 0.00 | 0.00 | 0.00 | 88 | 1012.8 |
| 20260906121503 | 72 | 35 | 1.0 | 7.0 | 0.00 | 0.00 | 0.00 | 88 | 1012.8 |
| 20260906121003 | 72 | 35 | 2.0 | 8.0 | 0.00 | 0.00 | 0.00 | 88 | 1012.6 |
| 20260906120503 | 72 | 20 | 4.0 | 8.0 | 0.00 | 0.00 | 0.00 | 89 | 1012.6 |
| 20260906120003 | 72 | 25 | 3.0 | 7.0 | 0.00 | 0.00 | 0.00 | 89 | 1012.5 |
| 20260906115504 | 71 | 30 | 3.0 | 6.0 | 0.00 | 0.00 | 0.00 | 89 | 1012.5 |
| 20260906115004 | 71 | 32 | 3.0 | 5.0 | 0.00 | 0.00 | 0.00 | 91 | 1012.3 |
| 20260906114503 | 71 | 0 | 0.0 | 5.0 | 0.00 | 0.00 | 0.00 | 91 | 1012.2 |
| 20260906114003 | 71 | 12 | 1.0 | 5.0 | 0.00 | 0.00 | 0.00 | 91 | 1012.2 |
| 20260906113503 | 71 | 20 | 2.0 | 4.0 | 0.00 | 0.00 | 0.00 | 91 | 1012.2 |
| 20260906113003 | 71 | 20 | 2.0 | 3.0 | 0.00 | 0.00 | 0.00 | 91 | 1012.2 |
| 20260906112504 | 71 | 20 | 2.0 | 6.0 | 0.00 | 0.00 | 0.00 | 91 | 1012.1 |
| 20260906112003 | 71 | 20 | 2.0 | 6.0 | 0.00 | 0.00 | 0.00 | 91 | 1012.3 |
| 20260906111525 | 70 | 11 | 3.0 | 6.0 | 0.00 | 0.00 | 0.00 | 92 | 1012.4 |
| 20260906111003 | 70 | 207 | 2.0 | 3.0 | 0.00 | 0.00 | 0.00 | 92 | 1012.1 |
| 20260906110503 | 70 | 207 | 0.0 | 2.0 | 0.00 | 0.00 | 0.00 | 92 | 1012.2 |
| 20260906110003 | 70 | 207 | 0.0 | 1.0 | 0.00 | 0.00 | 0.00 | 92 | 1012.2 |
| 20260906105504 | 70 | 207 | 0.0 | 2.0 | 0.00 | 0.00 | 0.00 | 92 | 1012.1 |
| 20260906105004 | 70 | 207 | 0.0 | 2.0 | 0.00 | 0.00 | 0.00 | 92 | 1011.9 |
| 20260906104503 | 70 | 207 | 0.0 | 2.0 | 0.00 | 0.00 | 0.00 | 92 | 1012.0 |
| 20260906104024 | 70 | 207 | 0.0 | 2.0 | 0.00 | 0.00 | 0.00 | 92 | 1012.0 |
| 20260906103504 | 70 | 207 | 1.0 | 2.0 | 0.00 | 0.00 | 0.00 | 92 | 1011.9 |
| 20260906103004 | 70 | 207 | 0.0 | 2.0 | 0.00 | 0.00 | 0.00 | 92 | 1011.9 |
| 20260906102504 | 70 | 207 | 1.0 | 2.0 | 0.00 | 0.00 | 0.00 | 92 | 1011.8 |
| 20260906102025 | 70 | 207 | 1.0 | 4.0 | 0.00 | 0.00 | 0.00 | 92 | 1011.7 |
| 20260906101504 | 70 | 207 | 2.0 | 4.0 | 0.00 | 0.00 | 0.00 | 92 | 1011.6 |
| 20260906101003 | 70 | 207 | 2.0 | 3.0 | 0.00 | 0.00 | 0.00 | 92 | 1011.6 |
| 20260906100504 | 70 | 207 | 2.0 | 3.0 | 0.00 | 0.00 | 0.00 | 92 | 1011.6 |
| 20260906100003 | 70 | 207 | 2.0 | 3.0 | 0.00 | 0.00 | 0.00 | 92 | 1011.7 |
| 20260906095503 | 70 | 0 | 0.0 | 0.0 | 0.00 | 0.00 | 0.00 | 92 | 1011.5 |
| 20260906095003 | 70 | 0 | 0.0 | 0.0 | 0.00 | 0.00 | 0.00 | 92 | 1011.5 |
| 20260906094504 | 70 | 0 | 0.0 | 1.0 | 0.00 | 0.00 | 0.00 | 92 | 1011.3 |
| 20260906094003 | 70 | 207 | 0.0 | 2.0 | 0.00 | 0.00 | 0.00 | 92 | 1011.3 |
| 20260906093503 | 71 | 207 | 1.0 | 2.0 | 0.00 | 0.00 | 0.00 | 92 | 1011.3 |
| 20260906093004 | 71 | 0 | 0.0 | 2.0 | 0.00 | 0.00 | 0.00 | 92 | 1011.3 |
| 20260906092524 | 70 | 207 | 1.0 | 2.0 | 0.00 | 0.00 | 0.00 | 92 | 1011.2 |
| 20260906092003 | 70 | 0 | 0.0 | 1.0 | 0.00 | 0.00 | 0.00 | 92 | 1011.2 |
| 20260906091524 | 70 | 0 | 0.0 | 0.0 | 0.00 | 0.00 | 0.00 | 92 | 1011.2 |
| 20260906091024 | 70 | 0 | 0.0 | 1.0 | 0.00 | 0.00 | 0.00 | 92 | 1011.2 |
| 20260906090504 | 70 | 0 | 0.0 | 2.0 | 0.00 | 0.00 | 0.00 | 92 | 1011.1 |
| 20260906090003 | 70 | 207 | 1.0 | 2.0 | 0.00 | 0.00 | 0.00 | 92 | 1011.2 |
| 20260906085503 | 71 | 207 | 0.0 | 2.0 | 0.00 | 0.00 | 0.00 | 92 | 1011.0 |
| 20260906085004 | 71 | 207 | 0.0 | 2.0 | 0.00 | 0.00 | 0.00 | 92 | 1011.2 |
| 20260906084504 | 71 | 207 | 0.0 | 1.0 | 0.00 | 0.00 | 0.00 | 91 | 1011.4 |
| 20260906084003 | 71 | 0 | 0.0 | 1.0 | 0.00 | 0.00 | 0.00 | 91 | 1011.3 |
| 20260906083504 | 71 | 0 | 0.0 | 4.0 | 0.00 | 0.00 | 0.00 | 92 | 1011.4 |
| 20260906083004 | 71 | 207 | 0.0 | 4.0 | 0.00 | 0.00 | 0.00 | 92 | 1011.3 |
| 20260906082503 | 71 | 207 | 1.0 | 3.0 | 0.00 | 0.00 | 0.00 | 91 | 1011.2 |
| 20260906082003 | 71 | 208 | 0.0 | 2.0 | 0.00 | 0.00 | 0.00 | 91 | 1011.0 |
| 20260906081503 | 71 | 208 | 0.0 | 2.0 | 0.00 | 0.00 | 0.00 | 91 | 1010.9 |
| 20260906081003 | 71 | 207 | 0.0 | 2.0 | 0.00 | 0.00 | 0.00 | 91 | 1010.9 |
| 20260906080503 | 71 | 207 | 2.0 | 2.0 | 0.00 | 0.00 | 0.00 | 91 | 1010.8 |
| 20260906080003 | 71 | 207 | 1.0 | 2.0 | 0.00 | 0.00 | 0.00 | 91 | 1010.8 |
| 20260906075503 | 71 | 207 | 0.0 | 2.0 | 0.00 | 0.00 | 0.00 | 91 | 1010.9 |
| 20260906075004 | 71 | 207 | 1.0 | 2.0 | 0.00 | 0.00 | 0.00 | 91 | 1010.9 |
| 20260906074503 | 71 | 207 | 0.0 | 2.0 | 0.00 | 0.00 | 0.00 | 91 | 1010.8 |
| 20260906074003 | 71 | 207 | 2.0 | 2.0 | 0.00 | 0.00 | 0.00 | 91 | 1010.8 |
| 20260906073503 | 71 | 0 | 0.0 | 1.0 | 0.00 | 0.00 | 0.00 | 91 | 1010.7 |
| 20260906073024 | 72 | 207 | 0.0 | 2.0 | 0.00 | 0.00 | 0.00 | 91 | 1010.7 |
| 20260906072503 | 72 | 0 | 0.0 | 2.0 | 0.00 | 0.00 | 0.00 | 91 | 1010.7 |
| 20260906072003 | 72 | 207 | 1.0 | 2.0 | 0.00 | 0.00 | 0.00 | 91 | 1010.7 |
| 20260906071502 | 72 | 207 | 2.0 | 2.0 | 0.00 | 0.00 | 0.00 | 91 | 1010.7 |
| 20260906071002 | 71 | 207 | 1.0 | 2.0 | 0.00 | 0.00 | 0.00 | 91 | 1010.7 |
| 20260906070502 | 71 | 0 | 0.0 | 1.0 | 0.00 | 0.00 | 0.00 | 91 | 1010.7 |
| 20260906070004 | 71 | 0 | 0.0 | 2.0 | 0.00 | 0.00 | 0.00 | 91 | 1010.7 |
| 20260906065502 | 71 | 207 | 0.0 | 2.0 | 0.00 | 0.00 | 0.00 | 91 | 1010.7 |
| 20260906065002 | 72 | 0 | 0.0 | 0.0 | 0.00 | 0.00 | 0.00 | 91 | 1010.8 |
| 20260906064523 | 72 | 0 | 0.0 | 0.0 | 0.00 | 0.00 | 0.00 | 91 | 1010.8 |
| 20260906064002 | 72 | 0 | 0.0 | 1.0 | 0.00 | 0.00 | 0.00 | 91 | 1010.9 |
| 20260906063524 | 72 | 207 | 0.0 | 2.0 | 0.00 | 0.00 | 0.00 | 91 | 1011.0 |
| 20260906063024 | 72 | 207 | 0.0 | 2.0 | 0.00 | 0.00 | 0.00 | 91 | 1011.1 |
| 20260906062502 | 72 | 207 | 0.0 | 2.0 | 0.00 | 0.00 | 0.00 | 89 | 1011.2 |
| 20260906062024 | 72 | 0 | 0.0 | 1.0 | 0.00 | 0.00 | 0.00 | 89 | 1011.2 |
| 20260906061524 | 72 | 207 | 0.0 | 3.0 | 0.00 | 0.00 | 0.00 | 89 | 1011.4 |
| 20260906061002 | 72 | 207 | 2.0 | 4.0 | 0.00 | 0.00 | 0.00 | 91 | 1011.5 |
| 20260906060503 | 72 | 202 | 2.0 | 4.0 | 0.00 | 0.00 | 0.00 | 91 | 1011.6 |
| 20260906060002 | 72 | 42 | 1.0 | 4.0 | 0.00 | 0.00 | 0.00 | 91 | 1011.4 |
| 20260906055503 | 72 | 42 | 0.0 | 4.0 | 0.00 | 0.00 | 0.00 | 91 | 1011.5 |
| 20260906055002 | 72 | 185 | 1.0 | 2.0 | 0.00 | 0.00 | 0.00 | 91 | 1011.6 |
| 20260906054524 | 72 | 0 | 0.0 | 4.0 | 0.00 | 0.00 | 0.00 | 89 | 1011.7 |
| 20260906054003 | 72 | 185 | 1.0 | 4.0 | 0.00 | 0.00 | 0.00 | 89 | 1011.7 |
| 20260906053502 | 72 | 185 | 1.0 | 2.0 | 0.00 | 0.00 | 0.00 | 89 | 1011.9 |
| 20260906053002 | 72 | 185 | 0.0 | 1.0 | 0.00 | 0.00 | 0.00 | 89 | 1011.8 |
| 20260906052502 | 72 | 0 | 0.0 | 2.0 | 0.00 | 0.00 | 0.00 | 89 | 1011.9 |
| 20260906052002 | 72 | 0 | 0.0 | 2.0 | 0.00 | 0.00 | 0.00 | 89 | 1012.1 |
| 20260906051523 | 72 | 185 | 1.0 | 2.0 | 0.00 | 0.00 | 0.00 | 89 | 1012.1 |
| 20260906051002 | 72 | 185 | 1.0 | 2.0 | 0.00 | 0.00 | 0.00 | 89 | 1012.2 |
| 20260906050504 | 72 | 0 | 0.0 | 2.0 | 0.00 | 0.00 | 0.00 | 89 | 1012.2 |
| 20260906050003 | 72 | 185 | 0.0 | 2.0 | 0.00 | 0.00 | 0.00 | 89 | 1012.2 |
| 20260906045502 | 72 | 185 | 0.0 | 1.0 | 0.00 | 0.00 | 0.00 | 89 | 1012.0 |
| 20260906045003 | 72 | 0 | 0.0 | 0.0 | 0.00 | 0.00 | 0.00 | 88 | 1012.0 |
| 20260906044502 | 72 | 0 | 0.0 | 1.0 | 0.00 | 0.00 | 0.00 | 88 | 1012.1 |
| 20260906044023 | 72 | 185 | 0.0 | 2.0 | 0.00 | 0.00 | 0.00 | 88 | 1012.2 |
| 20260906043503 | 73 | 185 | 1.0 | 3.0 | 0.00 | 0.00 | 0.00 | 87 | 1012.3 |
| 20260906043002 | 73 | 185 | 0.0 | 5.0 | 0.00 | 0.00 | 0.00 | 87 | 1012.4 |
| 20260906042502 | 73 | 186 | 2.0 | 5.0 | 0.00 | 0.00 | 0.00 | 87 | 1012.4 |
| 20260906042003 | 73 | 225 | 1.0 | 2.0 | 0.00 | 0.00 | 0.00 | 87 | 1012.5 |
| 20260906041503 | 73 | 225 | 2.0 | 3.0 | 0.00 | 0.00 | 0.00 | 87 | 1012.5 |
| 20260906041024 | 73 | 225 | 1.0 | 3.0 | 0.00 | 0.00 | 0.00 | 87 | 1012.5 |
| 20260906040502 | 73 | 227 | 2.0 | 3.0 | 0.00 | 0.00 | 0.00 | 87 | 1012.4 |
| 20260906040024 | 73 | 231 | 1.0 | 2.0 | 0.00 | 0.00 | 0.00 | 87 | 1012.4 |
| 20260906035523 | 73 | 231 | 1.0 | 5.0 | 0.00 | 0.00 | 0.00 | 87 | 1012.4 |
| 20260906035003 | 73 | 231 | 1.0 | 5.0 | 0.00 | 0.00 | 0.00 | 87 | 1012.4 |
| 20260906034502 | 73 | 231 | 0.0 | 2.0 | 0.00 | 0.00 | 0.00 | 87 | 1012.6 |
| 20260906034024 | 73 | 231 | 0.0 | 3.0 | 0.00 | 0.00 | 0.00 | 86 | 1012.5 |
| 20260906033503 | 73 | 231 | 1.0 | 3.0 | 0.00 | 0.00 | 0.00 | 86 | 1012.5 |
| 20260906033003 | 73 | 231 | 2.0 | 2.0 | 0.00 | 0.00 | 0.00 | 86 | 1012.6 |
| 20260906032502 | 73 | 231 | 0.0 | 3.0 | 0.00 | 0.00 | 0.00 | 86 | 1012.6 |
| 20260906032024 | 73 | 231 | 1.0 | 5.0 | 0.00 | 0.00 | 0.00 | 86 | 1012.5 |
| 20260906031503 | 73 | 231 | 1.0 | 5.0 | 0.00 | 0.00 | 0.00 | 86 | 1012.6 |
| 20260906031002 | 74 | 235 | 1.0 | 2.0 | 0.00 | 0.00 | 0.00 | 86 | 1012.5 |
| 20260906030503 | 74 | 235 | 1.0 | 5.0 | 0.00 | 0.00 | 0.00 | 84 | 1012.5 |
| 20260906030004 | 74 | 235 | 1.0 | 7.0 | 0.00 | 0.00 | 0.00 | 84 | 1012.5 |
| 20260906025503 | 74 | 242 | 2.0 | 7.0 | 0.00 | 0.00 | 0.00 | 84 | 1012.5 |
| 20260906025003 | 74 | 233 | 3.0 | 7.0 | 0.00 | 0.00 | 0.00 | 84 | 1012.4 |
| 20260906024502 | 74 | 241 | 2.0 | 5.0 | 0.00 | 0.00 | 0.00 | 84 | 1012.2 |
| 20260906024025 | 74 | 246 | 2.0 | 5.0 | 0.00 | 0.00 | 0.00 | 84 | 1012.3 |
| 20260906023503 | 74 | 256 | 2.0 | 4.0 | 0.00 | 0.00 | 0.00 | 84 | 1012.3 |
| 20260906023003 | 74 | 257 | 0.0 | 2.0 | 0.00 | 0.00 | 0.00 | 84 | 1012.2 |
| 20260906022502 | 74 | 257 | 0.0 | 2.0 | 0.00 | 0.00 | 0.00 | 83 | 1012.2 |
| 20260906022002 | 74 | 257 | 1.0 | 2.0 | 0.00 | 0.00 | 0.00 | 82 | 1012.2 |
| 20260906021502 | 74 | 257 | 1.0 | 2.0 | 0.00 | 0.00 | 0.00 | 82 | 1012.2 |
| 20260906021003 | 75 | 257 | 1.0 | 3.0 | 0.00 | 0.00 | 0.00 | 81 | 1012.1 |
| 20260906020503 | 75 | 257 | 1.0 | 6.0 | 0.00 | 0.00 | 0.00 | 81 | 1012.1 |
| 20260906020002 | 75 | 167 | 2.0 | 6.0 | 0.00 | 0.00 | 0.00 | 81 | 1012.2 |
| 20260906015502 | 75 | 155 | 2.0 | 4.0 | 0.00 | 0.00 | 0.00 | 81 | 1012.2 |
| 20260906015002 | 75 | 155 | 2.0 | 6.0 | 0.00 | 0.00 | 0.00 | 81 | 1012.3 |
| 20260906014502 | 75 | 172 | 3.0 | 7.0 | 0.00 | 0.00 | 0.00 | 81 | 1012.2 |
| 20260906014003 | 75 | 174 | 3.0 | 7.0 | 0.00 | 0.00 | 0.00 | 81 | 1012.1 |
| 20260906013503 | 75 | 216 | 1.0 | 2.0 | 0.00 | 0.00 | 0.00 | 81 | 1012.0 |
| 20260906013002 | 75 | 216 | 0.0 | 1.0 | 0.00 | 0.00 | 0.00 | 81 | 1012.0 |
| 20260906012502 | 75 | 216 | 0.0 | 1.0 | 0.00 | 0.00 | 0.00 | 79 | 1012.0 |
| 20260906012003 | 75 | 0 | 0.0 | 0.0 | 0.00 | 0.00 | 0.00 | 79 | 1011.8 |
| 20260906011502 | 75 | 0 | 0.0 | 2.0 | 0.00 | 0.00 | 0.00 | 78 | 1011.9 |
| 20260906011003 | 76 | 216 | 0.0 | 2.0 | 0.00 | 0.00 | 0.00 | 78 | 1011.9 |
| 20260906010502 | 76 | 216 | 1.0 | 2.0 | 0.00 | 0.00 | 0.00 | 78 | 1011.8 |
| 20260906010002 | 76 | 216 | 1.0 | 2.0 | 0.00 | 0.00 | 0.00 | 78 | 1011.6 |
| 20260906005502 | 76 | 0 | 0.0 | 2.0 | 0.00 | 0.00 | 0.00 | 77 | 1011.7 |
| 20260906005002 | 76 | 0 | 0.0 | 2.0 | 0.00 | 0.00 | 0.00 | 77 | 1011.7 |
| 20260906004502 | 76 | 216 | 1.0 | 2.0 | 0.00 | 0.00 | 0.00 | 76 | 1011.8 |
| 20260906004003 | 76 | 216 | 1.0 | 1.0 | 0.00 | 0.00 | 0.00 | 76 | 1011.7 |
| 20260906003503 | 77 | 216 | 0.0 | 2.0 | 0.00 | 0.00 | 0.00 | 75 | 1011.6 |
| 20260906003003 | 77 | 216 | 1.0 | 2.0 | 0.00 | 0.00 | 0.00 | 75 | 1011.6 |
| 20260906002503 | 77 | 0 | 0.0 | 2.0 | 0.00 | 0.00 | 0.00 | 74 | 1011.7 |
| 20260906002002 | 77 | 216 | 1.0 | 2.0 | 0.00 | 0.00 | 0.00 | 74 | 1011.7 |
| 20260906001524 | 78 | 216 | 0.0 | 3.0 | 0.00 | 0.00 | 0.00 | 72 | 1011.5 |
| 20260906001003 | 78 | 216 | 1.0 | 3.0 | 0.00 | 0.00 | 0.00 | 71 | 1011.5 |
| 20260906000502 | 78 | 216 | 1.0 | 3.0 | 0.00 | 0.00 | 0.00 | 72 | 1011.3 |
| 20260906000002 | 78 | 216 | 1.0 | 2.0 | 0.00 | 0.00 | 0.00 | 71 | 1011.2 |
| 20260905235524 | 79 | 216 | 1.0 | 4.0 | 0.00 | 0.00 | 0.00 | 70 | 1011.0 |
| 20260905235003 | 79 | 59 | 2.0 | 4.0 | 0.00 | 0.00 | 0.00 | 69 | 1011.0 |
| 20260905234502 | 79 | 32 | 1.0 | 3.0 | 0.00 | 0.00 | 0.00 | 69 | 1010.9 |
| 20260905234002 | 79 | 32 | 1.0 | 3.0 | 0.00 | 0.00 | 0.00 | 68 | 1010.7 |
| 20260905233502 | 80 | 32 | 0.0 | 2.0 | 0.00 | 0.00 | 0.00 | 67 | 1010.7 |
| 20260905233024 | 80 | 32 | 0.0 | 4.0 | 0.00 | 0.00 | 0.00 | 67 | 1010.5 |
| 20260905232503 | 80 | 32 | 0.0 | 5.0 | 0.00 | 0.00 | 0.00 | 65 | 1010.5 |
| 20260905232003 | 80 | 25 | 1.0 | 5.0 | 0.00 | 0.00 | 0.00 | 64 | 1010.6 |
| 20260905231503 | 81 | 43 | 0.0 | 2.0 | 0.00 | 0.00 | 0.00 | 63 | 1010.7 |
| 20260905231003 | 81 | 43 | 0.0 | 2.0 | 0.00 | 0.00 | 0.00 | 62 | 1010.6 |
| 20260905230503 | 81 | 43 | 0.0 | 2.0 | 0.00 | 0.00 | 0.00 | 62 | 1010.6 |
| 20260905230024 | 81 | 43 | 1.0 | 5.0 | 0.00 | 0.00 | 0.00 | 63 | 1010.7 |
| 20260905225502 | 82 | 358 | 2.0 | 7.0 | 0.00 | 0.00 | 0.00 | 63 | 1010.8 |
| 20260905225003 | 82 | 2 | 4.0 | 7.0 | 0.00 | 0.00 | 0.00 | 62 | 1010.7 |
| 20260905224503 | 82 | 202 | 0.0 | 2.0 | 0.00 | 0.00 | 0.00 | 61 | 1010.6 |
| 20260905224002 | 82 | 194 | 1.0 | 3.0 | 0.00 | 0.00 | 0.00 | 61 | 1010.6 |
| 20260905223504 | 82 | 342 | 1.0 | 3.0 | 0.00 | 0.00 | 0.00 | 60 | 1010.5 |
| 20260905223002 | 82 | 27 | 1.0 | 3.0 | 0.00 | 0.00 | 0.00 | 61 | 1010.5 |
| 20260905222502 | 82 | 6 | 1.0 | 4.0 | 0.00 | 0.00 | 0.00 | 60 | 1010.6 |
| 20260905222025 | 82 | 5 | 2.0 | 4.0 | 0.00 | 0.00 | 0.00 | 60 | 1010.6 |
| 20260905221524 | 82 | 37 | 1.0 | 2.0 | 0.00 | 0.00 | 0.00 | 59 | 1010.7 |
| 20260905221003 | 82 | 37 | 0.0 | 2.0 | 0.00 | 0.00 | 0.00 | 60 | 1010.6 |
| 20260905220503 | 82 | 37 | 1.0 | 2.0 | 0.00 | 0.00 | 0.00 | 60 | 1010.7 |
| 20260905220004 | 82 | 37 | 1.0 | 4.0 | 0.00 | 0.00 | 0.00 | 61 | 1010.7 |
| 20260905215503 | 83 | 124 | 1.0 | 5.0 | 0.00 | 0.00 | 0.00 | 61 | 1010.8 |
| 20260905215025 | 83 | 225 | 2.0 | 5.0 | 0.00 | 0.00 | 0.00 | 62 | 1010.9 |
| 20260905214504 | 82 | 240 | 2.0 | 4.0 | 0.00 | 0.00 | 0.00 | 62 | 1010.8 |
| 20260905214002 | 83 | 213 | 2.0 | 3.0 | 0.00 | 0.00 | 0.00 | 63 | 1011.0 |
| 20260905213503 | 82 | 220 | 2.0 | 4.0 | 0.00 | 0.00 | 0.00 | 65 | 1010.9 |
| 20260905213002 | 82 | 237 | 2.0 | 4.0 | 0.00 | 0.00 | 0.00 | 63 | 1011.0 |
| 20260905212503 | 81 | 35 | 2.0 | 3.0 | 0.00 | 0.00 | 0.00 | 67 | 1011.0 |
| 20260905212024 | 81 | 116 | 2.0 | 3.0 | 0.00 | 0.00 | 0.00 | 69 | 1011.2 |
| 20260905211503 | 81 | 168 | 1.0 | 2.0 | 0.00 | 0.00 | 0.00 | 70 | 1011.4 |
| 20260905211002 | 81 | 168 | 1.0 | 3.0 | 0.00 | 0.00 | 0.00 | 71 | 1011.7 |
| 20260905210525 | 80 | 163 | 2.0 | 3.0 | 0.00 | 0.00 | 0.00 | 71 | 1011.6 |
| 20260905210003 | 80 | 330 | 2.0 | 3.0 | 0.00 | 0.00 | 0.00 | 69 | 1011.7 |
| 20260905205503 | 80 | 356 | 0.0 | 4.0 | 0.00 | 0.00 | 0.00 | 70 | 1011.7 |
| 20260905205003 | 80 | 165 | 1.0 | 10.0 | 0.00 | 0.00 | 0.00 | 71 | 1011.6 |
| 20260905204503 | 80 | 314 | 4.0 | 10.0 | 0.00 | 0.00 | 0.00 | 72 | 1011.4 |
| 20260905204003 | 80 | 210 | 1.0 | 9.0 | 0.00 | 0.00 | 0.00 | 72 | 1011.6 |
| 20260905203502 | 81 | 212 | 3.0 | 9.0 | 0.00 | 0.00 | 0.00 | 71 | 1011.9 |
| 20260905203003 | 81 | 203 | 3.0 | 7.0 | 0.00 | 0.00 | 0.00 | 71 | 1011.5 |
| 20260905202503 | 82 | 213 | 3.0 | 7.0 | 0.00 | 0.00 | 0.00 | 69 | 1011.4 |
| 20260905202003 | 83 | 222 | 1.0 | 7.0 | 0.00 | 0.00 | 0.00 | 67 | 1011.2 |
| 20260905201502 | 83 | 208 | 3.0 | 7.0 | 0.00 | 0.00 | 0.00 | 64 | 1011.2 |
| 20260905201004 | 83 | 336 | 2.0 | 13.0 | 0.00 | 0.00 | 0.00 | 63 | 1011.3 |
| 20260905200523 | 84 | 350 | 4.0 | 13.0 | 0.00 | 0.00 | 0.00 | 62 | 1011.3 |
| 20260905200003 | 84 | 36 | 3.0 | 12.0 | 0.00 | 0.00 | 0.00 | 62 | 1011.7 |
| 20260905195503 | 84 | 13 | 6.0 | 14.0 | 0.00 | 0.00 | 0.00 | 60 | 1011.9 |
| 20260905195004 | 84 | 22 | 6.0 | 16.0 | 0.00 | 0.00 | 0.00 | 59 | 1012.2 |
| 20260905194503 | 85 | 23 | 9.0 | 16.0 | 0.00 | 0.00 | 0.00 | 57 | 1012.1 |
| 20260905194003 | 86 | 360 | 3.0 | 7.0 | 0.00 | 0.00 | 0.00 | 61 | 1011.6 |
| 20260905193523 | 87 | 223 | 2.0 | 4.0 | 0.00 | 0.00 | 0.00 | 61 | 1011.2 |
| 20260905193003 | 88 | 293 | 1.0 | 7.0 | 0.00 | 0.00 | 0.00 | 58 | 1010.6 |
| 20260905192504 | 90 | 332 | 3.0 | 7.0 | 0.00 | 0.00 | 0.00 | 57 | 1010.5 |
| 20260905192003 | 91 | 359 | 2.0 | 8.0 | 0.00 | 0.00 | 0.00 | 52 | 1010.6 |
| 20260905191504 | 92 | 217 | 2.0 | 8.0 | 0.00 | 0.00 | 0.00 | 49 | 1010.5 |
| 20260905191024 | 93 | 191 | 1.0 | 5.0 | 0.00 | 0.00 | 0.00 | 45 | 1010.5 |
| 20260905190502 | 94 | 253 | 2.0 | 8.0 | 0.00 | 0.00 | 0.00 | 45 | 1010.3 |
| 20260905190004 | 94 | 1 | 2.0 | 11.0 | 0.00 | 0.00 | 0.00 | 45 | 1010.2 |
| 20260905185503 | 95 | 18 | 7.0 | 11.0 | 0.00 | 0.00 | 0.00 | 44 | 1010.6 |
| 20260905185025 | 95 | 11 | 5.0 | 10.0 | 0.00 | 0.00 | 0.00 | 44 | 1010.7 |
| 20260905184503 | 95 | 335 | 2.0 | 11.0 | 0.00 | 0.00 | 0.00 | 44 | 1011.0 |
| 20260905184004 | 96 | 320 | 3.0 | 11.0 | 0.00 | 0.00 | 0.00 | 43 | 1011.0 |
| 20260905183504 | 96 | 347 | 3.0 | 10.0 | 0.00 | 0.00 | 0.00 | 42 | 1010.8 |
| 20260905183003 | 96 | 205 | 3.0 | 10.0 | 0.00 | 0.00 | 0.00 | 43 | 1010.9 |
| 20260905182503 | 95 | 148 | 1.0 | 7.0 | 0.00 | 0.00 | 0.00 | 44 | 1011.3 |
| 20260905182003 | 95 | 344 | 2.0 | 7.0 | 0.00 | 0.00 | 0.00 | 44 | 1011.2 |
| 20260905181523 | 96 | 360 | 3.0 | 11.0 | 0.00 | 0.00 | 0.00 | 42 | 1011.3 |